Regional Weather Roundup
Issued by NWS

Home | Current Version | Previous Version | Graphics & Text | Print | Product List | Glossary On
Versions: 1 2 3 4 5 6 7 8 9 10 11 12 13 14 15 16 17 18 19 20 21 22 23 24 25 26 27 28 29 30 31 32 33 34 35 36 37 38 39 40 41 42 43 44 45 46 47 48 49 50
000
ASUS45 KBOU 022307
RWRCO

WEATHER ROUNDUP FOR COLORADO
NATIONAL WEATHER SERVICE DENVER/BOULDER CO
500 PM MDT TUE SEP 02 2014

NOTE: "FAIR" INDICATES FEW OR NO CLOUDS BELOW 12000 FEET WITH NO
SIGNIFICANT WEATHER AND/OR OBSTRUCTIONS TO VISIBILITY.

COZ001>005-013-030-031-030000-
...NORTHWEST COLORADO...

CITY           SKY/WX    TMP DP  RH WIND       PRES   REMARKS
CRAIG          SUNNY     82  34  17 W16G31    30.05F
HAYDEN         MOSUNNY   81  30  16 W20G36    30.07F
MEEKER         SUNNY     83  33  16 SW13      30.07F
MOUNT WERNER   NOT AVBL
STEAMBOAT SPGS SUNNY     78  34  20 W10G18    30.10F
WALDEN         SUNNY     72  32  23 W21G28    30.20F
$$

COZ006>008-011-030000-
...WEST CENTRAL VALLEYS...

CITY           SKY/WX    TMP DP  RH WIND       PRES   REMARKS
GRAND JUNCTION SUNNY     88  35  15 NW14      29.95F
MONTROSE       MOSUNNY   87  32  14 VRB5      30.03F
EAGLE          MOSUNNY   82  30  15 W22G28    30.10F
RIFLE          SUNNY     86  32  14 W13G18    30.01F
DELTA          MOSUNNY   92  32  12 S3        29.98F
NUCLA          MOSUNNY   88  32  13 SW13      30.07F
$$

COZ017>023-064>068-030000-
...SOUTHWEST COLORADO...

CITY           SKY/WX    TMP DP  RH WIND       PRES   REMARKS
DURANGO        SUNNY     85  29  13 S8        30.11F
CORTEZ         SUNNY     88  31  13 W10       30.07F
PAGOSA SPRINGS SUNNY     83  20  10 SW12G23   30.20F
TELLURIDE      MOSUNNY   73  30  20 W7        30.31F
WOLF CREEK PAS SUNNY     59  30  33 SW12G24   30.54F
$$

COZ009-010-012-014-032>034-037-058>063-030000-
...CENTRAL COLORADO...

CITY           SKY/WX    TMP DP  RH WIND       PRES   REMARKS
ASPEN          MOSUNNY   78  31  17 VRB5G17   30.19S
BUENA VISTA    SUNNY     80  21  11 W8        30.18F
COPPER MTN     PTSUNNY   61  27  27 W20G29    30.53S
BERTHOUD PASS  FAIR      52  50  93 W24G35    30.56S
COTTONWOOD PAS MOSUNNY   73  14  10 CALM      30.35F
GUNNISON       SUNNY     79  30  17 W9        30.20F
KREMMLING      MOSUNNY   81  18   9 SW16G23   30.15F
LEADVILLE      MOSUNNY   68  27  21 NW13G18   30.35S
SALIDA         SUNNY     84  25  11 W10G17    30.21F
SUNLIGHT       SUNNY     68  37  32 CALM      30.45F
WILKERSON PASS NOT AVBL
$$

COZ069>075-030000-
...SAN LUIS VALLEY/SANGRE DE CRISTO MOUNTAINS...

CITY           SKY/WX    TMP DP  RH WIND       PRES   REMARKS
ALAMOSA        MOSUNNY   84  27  12 S15       30.15F
LA VETA PASS   NOT AVBL
SAGUACHE       MOSUNNY   79  34  19 S7        30.19F
$$

COZ035-036-038>040-030000-
...NORTHERN COLORADO FRONT RANGE...

CITY           SKY/WX    TMP DP  RH WIND       PRES   REMARKS
DENVER INTL AP MOSUNNY   86  39  19 E8        29.97F
DMNS CITY PARK   N/A     89  32  13 E1G7      29.97F
AURORA         MOSUNNY   86  36  17 E10       30.00F
FRONT RANGE AP NOT AVBL
ERIE MUNI ARPT SUNNY     87  37  17 E6        29.95F
BOULDER MUN AP SUNNY     82  45  26 N3        29.96F
CENTENNIAL     MOSUNNY   85  30  13 SE12G18   30.01F
BROOMFIELD     MOSUNNY   86  37  17 VRB3      30.00F
FORT COLLINS   SUNNY     86  46  25 SE9       29.93F
LONGMONT       SUNNY     88  43  20 CALM      29.96F
$$

COZ041-046-047-076>085-087-088-030000-
...PIKES PEAK/PALMER DIVIDE AND SOUTHERN FOOTHILLS...

CITY           SKY/WX    TMP DP  RH WIND       PRES   REMARKS
COLO. SPRINGS  MOSUNNY   80  50  34 SE18      30.07F
A. F. ACADEMY  SUNNY     78  51  38 SE12      30.08F
ELLICOTT       NOT AVBL
FALCON         SUNNY     77  50  38 SE9       30.14F
FORT CARSON    SUNNY     83  49  29 SE15      30.03F
LIMON          SUNNY     81  49  32 S15G22    30.03F
MONUMENT HILL  SUNNY     75  48  38 S14       30.13S
TRINIDAD       MOSUNNY   86  50  28 E21G30    30.02F
$$

COZ042>045-048>051-090-091-030000-
...NORTHEAST COLORADO...

CITY           SKY/WX    TMP DP  RH WIND       PRES   REMARKS
GREELEY ARPT   SUNNY     86  37  17 E5        29.94F
AKRON          SUNNY     84  48  28 S12       29.96F
BURLINGTON     SUNNY     85  49  28 S18G25    29.98F
WRAY             N/A     88  51  28 S14G22    29.93F
STERLING       SUNNY     88  59  37 S10       29.90F
HOLYOKE        SUNNY     84  55  37 S13G22    29.92F
FORT MORGAN    SUNNY     85  52  31 SE8       29.94F
$$

COZ086-089-092>099-030000-
...SOUTHEAST COLORADO...

CITY           SKY/WX    TMP DP  RH WIND       PRES   REMARKS
PUEBLO         SUNNY     90  49  24 SE18      29.93F
LA JUNTA       SUNNY     91  47  21 SE13      29.93F
LAMAR          SUNNY     88  54  31 SE20      29.93F
SPRINGFIELD      N/A     84  59  42 SE16      30.00F
$$



USA.gov is the U.S. government's official web portal to all federal, state and local government web resources and services.